Powrót do katalogu

STARLINK-34565

AktywnyŁącznośćVLEO
NORAD 64686·PAYLOAD·🇺🇸 United States

Wystrzelony Jun 28, 2025 z Cape Canaveral Space Force Station

Loading…

Następne Przeloty (najbliższe 24 godziny)

TLE

ŚwieżeSource: CelesTrak SupGP

Epoka: Sep 15, 2026, 03:36 UTC

1 64686C 25139Y   26258.15048611  .00044567  00000+0  13165-2 0  2580
2 64686  53.1596 322.8617 0001218  94.6526 129.7067 15.34374902    15

Śledź STARLINK-34565 w czasie rzeczywistym z AllMySat

Download on the App Store